Retour au catalogue

METEOR 2-5 DEB

ActifPO
NORAD 45507·DEBRIS·🇷🇺 Russia

Lancé Oct 31, 1979 depuis Plesetsk Cosmodrome

Loading…

Prochains Passages (prochaines 24 heures)

TLE

FraisSource: Space-Track

Époque: Sep 12, 2026, 16:59 UTC

1 45507U 79095CP  26255.70779680  .00002645  00000-0  86536-3 0  9993
2 45507  81.1941  48.8375 0010001 109.0454 251.1816 14.38261517609734

Suivez METEOR 2-5 DEB en temps réel avec AllMySat

Download on the App Store